Time,TemperatureF,DewpointF,PressureIn,WindDirection,WindDirectionDegrees,WindSpeedMPH,WindSpeedGustMPH,Humidity,HourlyPrecipIn,Conditions,Clouds,dailyrainin,SoftwareType,DateUTC
2013-04-23 00:06:00,43.8,25.4,30.46,East,90,4.0,4.0,48,0.00,,CLR,0.00,VWS V13.01,2013-04-23 04:06:00,
2013-04-23 00:07:00,43.8,25.4,30.46,East,90,4.0,4.0,48,0.00,,CLR,0.00,VWS V13.01,2013-04-23 04:07:00,
2013-04-23 00:08:00,43.8,25.4,30.46,ENE,68,4.0,4.0,48,0.00,,CLR,0.00,VWS V13.01,2013-04-23 04:08:00,
2013-04-23 00:13:00,43.7,25.3,30.46,ENE,68,4.0,4.0,49,0.00,,CLR,0.00,VWS V13.01,2013-04-23 04:13:00,
2013-04-23 00:18:00,43.5,25.6,30.46,ESE,112,4.0,4.0,49,0.00,,CLR,0.00,VWS V13.01,2013-04-23 04:18:00,
2013-04-23 00:23:00,43.3,25.6,30.46,ESE,112,4.0,4.0,49,0.00,,CLR,0.00,VWS V13.01,2013-04-23 04:23:00,
2013-04-23 00:28:00,43.1,25.9,30.46,East,90,4.0,4.0,50,0.00,,CLR,0.00,VWS V13.01,2013-04-23 04:28:00,
2013-04-23 00:33:00,42.9,25.6,30.46,East,90,4.0,4.0,50,0.00,,CLR,0.00,VWS V13.01,2013-04-23 04:33:00,
2013-04-23 00:38:00,42.9,25.3,30.46,East,90,4.0,4.0,50,0.00,,CLR,0.00,VWS V13.01,2013-04-23 04:38:00,
2013-04-23 00:43:00,42.4,25.1,30.46,East,90,4.0,4.0,50,0.00,,CLR,0.00,VWS V13.01,2013-04-23 04:43:00,
2013-04-23 00:48:00,42.0,25.2,30.46,East,90,4.0,4.0,50,0.00,,CLR,0.00,VWS V13.01,2013-04-23 04:48:00,
2013-04-23 00:53:00,42.0,25.1,30.45,East,90,4.0,4.0,50,0.00,,CLR,0.00,VWS V13.01,2013-04-23 04:53:00,
2013-04-23 00:58:00,41.7,25.4,30.45,ENE,68,4.0,4.0,51,0.00,,CLR,0.00,VWS V13.01,2013-04-23 04:58:00,
2013-04-23 01:03:00,41.7,25.2,30.45,ENE,68,4.0,4.0,51,0.00,,CLR,0.00,VWS V13.01,2013-04-23 05:03:00,
2013-04-23 01:08:00,41.5,25.7,30.45,ENE,68,4.0,4.0,52,0.00,,CLR,0.00,VWS V13.01,2013-04-23 05:08:00,
2013-04-23 01:13:00,41.3,25.9,30.45,NNE,22,2.9,2.9,53,0.00,,CLR,0.00,VWS V13.01,2013-04-23 05:13:00,
2013-04-23 01:18:00,41.3,25.9,30.45,NE,45,2.9,2.9,55,0.00,,CLR,0.00,VWS V13.01,2013-04-23 05:18:00,
2013-04-23 01:23:00,41.3,26.8,30.45,NE,45,2.9,2.9,55,0.00,,CLR,0.00,VWS V13.01,2013-04-23 05:23:00,
2013-04-23 01:28:00,41.3,26.6,30.45,NE,45,2.9,2.9,56,0.00,,CLR,0.00,VWS V13.01,2013-04-23 05:28:00,
2013-04-23 01:33:00,41.1,26.6,30.45,ESE,112,2.9,2.9,56,0.00,,CLR,0.00,VWS V13.01,2013-04-23 05:33:00,
2013-04-23 01:38:00,41.1,27.0,30.45,ESE,112,2.9,2.9,56,0.00,,CLR,0.00,VWS V13.01,2013-04-23 05:38:00,
2013-04-23 01:43:00,41.1,27.0,30.45,ESE,112,2.9,2.9,57,0.00,,CLR,0.00,VWS V13.01,2013-04-23 05:43:00,
2013-04-23 01:48:00,41.0,26.8,30.45,ESE,112,2.9,2.9,56,0.00,,CLR,0.00,VWS V13.01,2013-04-23 05:48:00,
2013-04-23 01:53:00,40.8,26.8,30.45,ESE,112,2.9,2.9,57,0.00,,CLR,0.00,VWS V13.01,2013-04-23 05:53:00,
2013-04-23 01:58:00,40.6,27.0,30.45,East,90,2.9,2.9,57,0.00,,CLR,0.00,VWS V13.01,2013-04-23 05:58:00,
2013-04-23 02:03:00,40.4,26.6,30.45,East,90,2.9,2.9,58,0.00,,CLR,0.00,VWS V13.01,2013-04-23 06:03:00,
2013-04-23 02:08:00,40.2,26.9,30.45,NNE,22,2.9,2.9,59,0.00,,CLR,0.00,VWS V13.01,2013-04-23 06:08:00,
2013-04-23 02:13:00,39.9,26.9,30.45,NNE,22,2.9,2.9,59,0.00,,CLR,0.00,VWS V13.01,2013-04-23 06:13:00,
2013-04-23 02:18:00,39.9,26.8,30.45,NNE,22,2.9,2.9,60,0.00,,CLR,0.00,VWS V13.01,2013-04-23 06:18:00,
2013-04-23 02:24:00,39.7,27.0,30.44,NNE,22,2.9,2.9,60,0.00,,CLR,0.00,VWS V13.01,2013-04-23 06:24:00,
2013-04-23 02:29:00,39.7,27.0,30.44,NNE,22,2.9,2.9,60,0.00,,CLR,0.00,VWS V13.01,2013-04-23 06:29:00,
2013-04-23 02:34:00,39.7,26.8,30.44,NNE,22,2.9,2.9,60,0.00,,CLR,0.00,VWS V13.01,2013-04-23 06:34:00,
2013-04-23 02:39:00,39.7,26.8,30.44,NNE,22,2.9,2.9,60,0.00,,CLR,0.00,VWS V13.01,2013-04-23 06:39:00,
2013-04-23 02:44:00,39.3,26.8,30.44,NNE,22,2.9,2.9,61,0.00,,CLR,0.00,VWS V13.01,2013-04-23 06:44:00,
2013-04-23 02:49:00,39.3,27.0,30.43,NNE,22,2.9,2.9,61,0.00,,CLR,0.00,VWS V13.01,2013-04-23 06:49:00,
2013-04-23 02:54:00,39.3,27.0,30.43,NNE,22,2.9,2.9,61,0.00,,CLR,0.00,VWS V13.01,2013-04-23 06:54:00,
2013-04-23 02:59:00,39.0,27.0,30.43,NNE,22,2.9,2.9,61,0.00,,CLR,0.00,VWS V13.01,2013-04-23 06:59:00,
2013-04-23 03:04:00,39.0,26.7,30.43,NNE,22,2.9,2.9,61,0.00,,CLR,0.00,VWS V13.01,2013-04-23 07:04:00,
2013-04-23 03:09:00,39.0,26.9,30.43,NNE,22,2.9,2.9,62,0.00,,CLR,0.00,VWS V13.01,2013-04-23 07:09:00,
2013-04-23 03:14:00,38.8,26.9,30.43,NNE,22,2.9,2.9,62,0.00,,CLR,0.00,VWS V13.01,2013-04-23 07:14:00,
2013-04-23 03:19:00,38.8,27.3,30.43,NNE,22,2.9,2.9,62,0.00,,CLR,0.00,VWS V13.01,2013-04-23 07:19:00,
2013-04-23 03:24:00,38.8,26.9,30.43,NNE,22,2.9,2.9,63,0.00,,CLR,0.00,VWS V13.01,2013-04-23 07:24:00,
2013-04-23 03:29:00,38.8,26.9,30.43,NNE,22,2.9,2.9,63,0.00,,CLR,0.00,VWS V13.01,2013-04-23 07:29:00,
2013-04-23 03:34:00,38.4,26.6,30.43,NNE,22,2.9,2.9,63,0.00,,CLR,0.00,VWS V13.01,2013-04-23 07:34:00,
2013-04-23 03:39:00,38.1,26.5,30.43,NNE,22,2.9,2.9,63,0.00,,CLR,0.00,VWS V13.01,2013-04-23 07:39:00,
2013-04-23 03:44:00,37.9,26.6,30.43,NNE,22,2.9,2.9,63,0.00,,CLR,0.00,VWS V13.01,2013-04-23 07:44:00,
2013-04-23 03:49:00,37.7,26.8,30.43,NNE,22,2.9,2.9,64,0.00,,CLR,0.00,VWS V13.01,2013-04-23 07:49:00,
2013-04-23 03:54:00,37.5,26.7,30.42,NNE,22,2.9,2.9,65,0.00,,CLR,0.00,VWS V13.01,2013-04-23 07:54:00,
2013-04-23 03:59:00,37.4,26.5,30.42,NNE,22,2.9,2.9,65,0.00,,CLR,0.00,VWS V13.01,2013-04-23 07:59:00,
2013-04-23 04:04:00,37.2,26.9,30.43,NNE,22,2.9,2.9,65,0.00,,CLR,0.00,VWS V13.01,2013-04-23 08:04:00,
2013-04-23 04:09:00,37.2,27.1,30.43,NNE,22,2.9,2.9,65,0.00,,CLR,0.00,VWS V13.01,2013-04-23 08:09:00,
2013-04-23 04:14:00,37.2,27.1,30.43,NNE,22,2.9,2.9,65,0.00,,CLR,0.00,VWS V13.01,2013-04-23 08:14:00,
2013-04-23 04:19:00,37.4,27.5,30.43,NNE,22,2.9,2.9,66,0.00,,CLR,0.00,VWS V13.01,2013-04-23 08:19:00,
2013-04-23 04:24:00,37.7,27.5,30.43,NNE,22,2.9,2.9,67,0.00,,CLR,0.00,VWS V13.01,2013-04-23 08:24:00,
2013-04-23 04:29:00,37.7,27.8,30.43,NNE,22,2.9,2.9,67,0.00,,CLR,0.00,VWS V13.01,2013-04-23 08:29:00,
2013-04-23 04:34:00,37.7,27.5,30.43,NNE,22,2.9,2.9,67,0.00,,CLR,0.00,VWS V13.01,2013-04-23 08:34:00,
2013-04-23 04:39:00,37.5,27.5,30.43,NNE,22,2.9,2.9,67,0.00,,CLR,0.00,VWS V13.01,2013-04-23 08:39:00,
2013-04-23 04:44:00,37.5,27.3,30.43,NNE,22,2.9,2.9,67,0.00,,CLR,0.00,VWS V13.01,2013-04-23 08:44:00,
2013-04-23 04:49:00,37.2,26.9,30.43,NNE,22,2.9,2.9,67,0.00,,CLR,0.00,VWS V13.01,2013-04-23 08:49:00,
2013-04-23 04:54:00,36.8,27.0,30.43,NNE,22,2.9,2.9,67,0.00,,CLR,0.00,VWS V13.01,2013-04-23 08:54:00,
2013-04-23 04:59:00,36.6,26.8,30.42,NNE,22,2.9,2.9,68,0.00,,CLR,0.00,VWS V13.01,2013-04-23 08:59:00,
2013-04-23 05:04:00,36.3,26.8,30.42,NNE,22,2.9,2.9,68,0.00,,CLR,0.00,VWS V13.01,2013-04-23 09:04:00,
2013-04-23 05:09:00,36.3,26.6,30.42,NNE,22,2.9,2.9,68,0.00,,CLR,0.00,VWS V13.01,2013-04-23 09:09:00,
2013-04-23 05:14:00,36.1,26.7,30.42,NNE,22,2.9,2.9,68,0.00,,CLR,0.00,VWS V13.01,2013-04-23 09:14:00,
2013-04-23 05:19:00,35.9,26.7,30.42,NNE,22,2.9,2.9,69,0.00,,CLR,0.00,VWS V13.01,2013-04-23 09:19:00,
2013-04-23 05:25:00,35.9,27.1,30.42,NNE,22,2.9,2.9,69,0.00,,CLR,0.00,VWS V13.01,2013-04-23 09:25:00,
2013-04-23 05:30:00,35.9,27.1,30.42,NNE,22,2.9,2.9,69,0.00,,CLR,0.00,VWS V13.01,2013-04-23 09:30:00,
2013-04-23 05:35:00,35.9,27.1,30.42,NNE,22,2.9,2.9,70,0.00,,CLR,0.00,VWS V13.01,2013-04-23 09:35:00,
2013-04-23 05:40:00,35.7,27.1,30.42,NNE,22,2.9,2.9,70,0.00,,CLR,0.00,VWS V13.01,2013-04-23 09:40:00,
2013-04-23 05:45:00,35.7,26.9,30.42,NNE,22,2.9,2.9,70,0.00,,CLR,0.00,VWS V13.01,2013-04-23 09:45:00,
2013-04-23 05:50:00,35.7,27.0,30.42,NNE,22,2.9,2.9,70,0.00,,CLR,0.00,VWS V13.01,2013-04-23 09:50:00,
2013-04-23 05:55:00,35.4,27.0,30.42,NNE,22,2.9,2.9,71,0.00,,CLR,0.00,VWS V13.01,2013-04-23 09:55:00,
2013-04-23 06:00:00,35.4,27.0,30.42,NNE,22,2.9,2.9,71,0.00,,CLR,0.00,VWS V13.01,2013-04-23 10:00:00,
2013-04-23 06:05:00,35.4,27.0,30.41,NNE,22,2.9,2.9,71,0.00,,CLR,0.00,VWS V13.01,2013-04-23 10:05:00,
2013-04-23 06:11:00,35.4,27.3,30.41,NNE,22,2.9,2.9,72,0.00,,CLR,0.00,VWS V13.01,2013-04-23 10:11:00,
2013-04-23 06:16:00,35.4,27.5,30.41,NNE,22,2.9,2.9,72,0.00,,CLR,0.00,VWS V13.01,2013-04-23 10:16:00,
2013-04-23 06:21:00,35.7,27.3,30.41,NNE,22,2.9,2.9,72,0.00,,CLR,0.00,VWS V13.01,2013-04-23 10:21:00,
2013-04-23 06:26:00,35.7,27.3,30.42,NNE,22,2.9,2.9,72,0.00,,CLR,0.00,VWS V13.01,2013-04-23 10:26:00,
2013-04-23 06:31:00,35.7,27.6,30.42,NNE,22,2.9,2.9,72,0.00,,CLR,0.00,VWS V13.01,2013-04-23 10:31:00,
2013-04-23 06:36:00,35.7,27.6,30.42,NNE,22,2.9,2.9,72,0.00,,CLR,0.00,VWS V13.01,2013-04-23 10:36:00,
2013-04-23 06:41:00,35.7,27.6,30.42,NNE,22,2.9,2.9,72,0.00,,CLR,0.00,VWS V13.01,2013-04-23 10:41:00,
2013-04-23 06:46:00,35.7,27.9,30.42,NNE,22,2.9,2.9,73,0.00,,CLR,0.00,VWS V13.01,2013-04-23 10:46:00,
2013-04-23 06:51:00,35.7,27.9,30.42,NNE,22,2.9,2.9,73,0.00,,CLR,0.00,VWS V13.01,2013-04-23 10:51:00,
2013-04-23 06:56:00,35.7,27.9,30.42,NNE,22,2.9,2.9,73,0.00,,CLR,0.00,VWS V13.01,2013-04-23 10:56:00,
2013-04-23 07:01:00,35.4,27.6,30.42,NNE,22,2.9,2.9,73,0.00,,CLR,0.00,VWS V13.01,2013-04-23 11:01:00,
2013-04-23 07:06:00,35.4,28.0,30.41,NNE,22,2.9,2.9,74,0.00,,CLR,0.00,VWS V13.01,2013-04-23 11:06:00,
2013-04-23 07:11:00,35.4,28.0,30.41,NNE,22,2.9,2.9,74,0.00,,CLR,0.00,VWS V13.01,2013-04-23 11:11:00,
2013-04-23 07:16:00,35.4,28.0,30.41,NNE,22,2.9,2.9,74,0.00,,CLR,0.00,VWS V13.01,2013-04-23 11:16:00,
2013-04-23 07:21:00,35.4,28.0,30.41,NNE,22,2.9,2.9,74,0.00,,CLR,0.00,VWS V13.01,2013-04-23 11:21:00,
2013-04-23 07:26:00,35.4,28.6,30.41,NE,45,2.9,2.9,74,0.00,,CLR,0.00,VWS V13.01,2013-04-23 11:26:00,
2013-04-23 07:31:00,35.9,29.0,30.42,NE,45,2.9,2.9,75,0.00,,CLR,0.00,VWS V13.01,2013-04-23 11:31:00,
2013-04-23 07:36:00,36.1,28.8,30.42,NE,45,2.9,2.9,75,0.00,,CLR,0.00,VWS V13.01,2013-04-23 11:36:00,
2013-04-23 07:41:00,36.5,29.3,30.42,NNE,22,2.9,2.9,74,0.00,,CLR,0.00,VWS V13.01,2013-04-23 11:41:00,
2013-04-23 07:46:00,36.5,29.6,30.41,North,0,3.3,3.3,75,0.00,,CLR,0.00,VWS V13.01,2013-04-23 11:46:00,
2013-04-23 07:51:00,37.2,30.0,30.41,ENE,68,3.3,3.3,75,0.00,,CLR,0.00,VWS V13.01,2013-04-23 11:51:00,
2013-04-23 07:56:00,37.2,30.5,30.41,ENE,68,3.3,3.3,75,0.00,,CLR,0.00,VWS V13.01,2013-04-23 11:56:00,
2013-04-23 08:01:00,38.1,30.9,30.42,ENE,68,3.3,3.3,75,0.00,,CLR,0.00,VWS V13.01,2013-04-23 12:01:00,
2013-04-23 08:06:00,38.1,31.2,30.41,NE,45,3.3,3.3,75,0.00,,CLR,0.00,VWS V13.01,2013-04-23 12:06:00,
2013-04-23 08:11:00,38.6,31.6,30.41,NNE,22,3.3,3.3,75,0.00,,CLR,0.00,VWS V13.01,2013-04-23 12:11:00,
2013-04-23 08:16:00,39.3,32.0,30.41,NNE,22,3.3,3.3,75,0.00,,CLR,0.00,VWS V13.01,2013-04-23 12:16:00,
2013-04-23 08:21:00,39.5,32.1,30.41,ESE,112,3.3,3.3,74,0.00,,CLR,0.00,VWS V13.01,2013-04-23 12:21:00,
2013-04-23 08:26:00,40.1,31.9,30.41,ESE,112,3.3,3.3,74,0.00,,CLR,0.00,VWS V13.01,2013-04-23 12:26:00,
2013-04-23 08:31:00,39.5,33.0,30.41,ESE,112,3.3,3.3,74,0.00,,CLR,0.00,VWS V13.01,2013-04-23 12:31:00,
2013-04-23 08:36:00,39.5,33.5,30.41,ESE,112,3.3,3.3,74,0.00,,CLR,0.00,VWS V13.01,2013-04-23 12:36:00,
2013-04-23 08:41:00,41.3,33.5,30.41,ESE,112,3.3,3.3,73,0.00,,CLR,0.00,VWS V13.01,2013-04-23 12:41:00,
2013-04-23 08:46:00,41.5,33.7,30.41,ESE,112,3.3,3.3,73,0.00,,CLR,0.00,VWS V13.01,2013-04-23 12:46:00,
2013-04-23 08:51:00,42.0,33.9,30.41,ENE,68,3.3,3.3,73,0.00,,CLR,0.00,VWS V13.01,2013-04-23 12:51:00,
2013-04-23 08:56:00,42.4,34.6,30.41,ENE,68,3.3,3.3,73,0.00,,CLR,0.00,VWS V13.01,2013-04-23 12:56:00,
2013-04-23 09:01:00,42.6,34.5,30.41,NE,45,3.3,3.3,72,0.00,,CLR,0.00,VWS V13.01,2013-04-23 13:01:00,
2013-04-23 09:06:00,42.9,34.9,30.41,NE,45,3.3,3.3,72,0.00,,CLR,0.00,VWS V13.01,2013-04-23 13:06:00,
2013-04-23 09:11:00,43.5,34.7,30.41,ESE,112,3.3,3.3,72,0.00,,CLR,0.00,VWS V13.01,2013-04-23 13:11:00,
2013-04-23 09:16:00,43.8,35.0,30.41,SSW,202,3.3,3.3,71,0.00,,CLR,0.00,VWS V13.01,2013-04-23 13:16:00,
2013-04-23 09:21:00,44.2,35.4,30.41,SSW,202,3.3,3.3,71,0.00,,CLR,0.00,VWS V13.01,2013-04-23 13:21:00,
2013-04-23 09:26:00,44.6,35.4,30.41,NW,315,2.6,2.6,70,0.00,,CLR,0.00,VWS V13.01,2013-04-23 13:26:00,
2013-04-23 09:31:00,44.7,35.4,30.41,SW,225,1.1,2.0,70,0.00,,CLR,0.00,VWS V13.01,2013-04-23 13:31:00,
2013-04-23 09:37:00,44.9,35.9,30.41,SW,225,0.8,2.0,71,0.00,,CLR,0.00,VWS V13.01,2013-04-23 13:37:00,
2013-04-23 09:42:00,45.1,36.3,30.40,SW,225,0.8,2.0,71,0.00,,CLR,0.00,VWS V13.01,2013-04-23 13:42:00,
2013-04-23 09:47:00,45.3,36.7,30.40,SW,225,0.8,2.0,71,0.00,,CLR,0.00,VWS V13.01,2013-04-23 13:47:00,
2013-04-23 09:52:00,45.6,36.8,30.39,South,180,0.8,2.0,70,0.00,,CLR,0.00,VWS V13.01,2013-04-23 13:52:00,
2013-04-23 09:57:00,46.5,36.4,30.40,South,180,0.8,2.0,69,0.00,,CLR,0.00,VWS V13.01,2013-04-23 13:57:00,
2013-04-23 10:02:00,47.1,37.3,30.40,WSW,248,0.2,2.0,69,0.00,,CLR,0.00,VWS V13.01,2013-04-23 14:02:00,
2013-04-23 10:07:00,47.3,37.7,30.41,SSE,158,4.6,4.6,68,0.00,,CLR,0.00,VWS V13.01,2013-04-23 14:07:00,
2013-04-23 10:12:00,47.4,37.6,30.40,West,270,2.4,2.4,68,0.00,,CLR,0.00,VWS V13.01,2013-04-23 14:12:00,
2013-04-23 10:17:00,47.8,37.8,30.41,NW,315,6.4,6.4,68,0.00,,CLR,0.00,VWS V13.01,2013-04-23 14:17:00,
2013-04-23 10:22:00,48.0,38.0,30.41,WNW,292,5.8,5.8,68,0.00,,CLR,0.00,VWS V13.01,2013-04-23 14:22:00,
2013-04-23 10:27:00,48.2,37.6,30.41,NW,315,5.5,5.5,67,0.00,,CLR,0.00,VWS V13.01,2013-04-23 14:27:00,
2013-04-23 10:32:00,48.0,37.6,30.41,WSW,248,6.2,6.2,67,0.00,,CLR,0.00,VWS V13.01,2013-04-23 14:32:00,
2013-04-23 10:37:00,48.0,37.9,30.41,NW,315,4.4,4.4,67,0.00,,CLR,0.00,VWS V13.01,2013-04-23 14:37:00,
2013-04-23 10:42:00,48.3,38.2,30.41,West,270,1.5,2.0,67,0.00,,CLR,0.00,VWS V13.01,2013-04-23 14:42:00,
2013-04-23 10:47:00,48.7,38.2,30.41,WSW,248,2.4,2.4,67,0.00,,CLR,0.00,VWS V13.01,2013-04-23 14:47:00,
2013-04-23 10:52:00,48.9,38.7,30.41,West,270,4.2,4.2,67,0.00,,CLR,0.00,VWS V13.01,2013-04-23 14:52:00,
2013-04-23 10:57:00,49.2,38.9,30.41,WNW,292,0.8,2.0,67,0.00,,CLR,0.00,VWS V13.01,2013-04-23 14:57:00,
2013-04-23 11:02:00,49.6,39.7,30.41,WNW,292,8.0,8.0,67,0.00,,CLR,0.00,VWS V13.01,2013-04-23 15:02:00,
2013-04-23 11:07:00,50.1,39.6,30.41,West,270,3.3,3.3,68,0.00,,CLR,0.00,VWS V13.01,2013-04-23 15:07:00,
2013-04-23 11:12:00,50.7,40.5,30.41,WSW,248,7.1,7.1,68,0.00,,CLR,0.00,VWS V13.01,2013-04-23 15:12:00,
2013-04-23 11:17:00,50.9,40.6,30.40,NNW,338,2.4,2.4,67,0.00,,CLR,0.00,VWS V13.01,2013-04-23 15:17:00,
2013-04-23 11:22:00,51.4,41.0,30.40,North,0,2.4,2.4,67,0.00,,CLR,0.00,VWS V13.01,2013-04-23 15:22:00,
2013-04-23 11:27:00,51.9,41.7,30.40,West,270,3.1,3.1,67,0.00,,CLR,0.00,VWS V13.01,2013-04-23 15:27:00,
2013-04-23 11:32:00,52.5,41.1,30.42,WSW,248,3.5,3.5,65,0.00,,CLR,0.00,VWS V13.01,2013-04-23 15:32:00,
2013-04-23 11:37:00,52.7,41.4,30.42,WSW,248,4.2,4.2,65,0.00,,CLR,0.00,VWS V13.01,2013-04-23 15:37:00,
2013-04-23 11:42:00,52.8,41.3,30.41,SW,225,6.2,6.2,64,0.00,,CLR,0.00,VWS V13.01,2013-04-23 15:42:00,
2013-04-23 11:47:00,53.4,41.0,30.41,West,270,3.8,3.8,64,0.00,,CLR,0.00,VWS V13.01,2013-04-23 15:47:00,
2013-04-23 11:52:00,53.7,41.8,30.41,NNW,338,5.3,5.3,63,0.00,,CLR,0.00,VWS V13.01,2013-04-23 15:52:00,
2013-04-23 11:57:00,54.3,42.2,30.40,SW,225,7.1,7.1,64,0.00,,CLR,0.00,VWS V13.01,2013-04-23 15:57:00,
2013-04-23 12:02:00,54.8,41.8,30.39,WNW,292,1.7,2.0,62,0.00,,CLR,0.00,VWS V13.01,2013-04-23 16:02:00,
2013-04-23 12:07:00,55.2,42.0,30.39,NW,315,3.8,3.8,61,0.00,,CLR,0.00,VWS V13.01,2013-04-23 16:07:00,
2013-04-23 12:12:00,55.5,42.2,30.39,WNW,292,2.6,2.6,61,0.00,,CLR,0.00,VWS V13.01,2013-04-23 16:12:00,
2013-04-23 12:17:00,56.1,42.7,30.39,NW,315,6.0,6.0,61,0.00,,CLR,0.00,VWS V13.01,2013-04-23 16:17:00,
2013-04-23 12:22:00,56.3,42.9,30.38,SSW,202,5.8,5.8,60,0.00,,CLR,0.00,VWS V13.01,2013-04-23 16:22:00,
2013-04-23 12:27:00,57.0,43.3,30.37,WSW,248,5.5,5.5,59,0.00,,CLR,0.00,VWS V13.01,2013-04-23 16:27:00,
2013-04-23 12:32:00,57.9,42.3,30.37,South,180,0.4,2.0,56,0.00,,CLR,0.00,VWS V13.01,2013-04-23 16:32:00,
2013-04-23 12:37:00,58.1,42.6,30.37,WSW,248,2.6,2.6,57,0.00,,CLR,0.00,VWS V13.01,2013-04-23 16:37:00,
2013-04-23 12:42:00,58.2,43.0,30.37,NNW,338,2.6,2.6,56,0.00,,CLR,0.00,VWS V13.01,2013-04-23 16:42:00,
2013-04-23 12:47:00,58.8,43.4,30.37,WSW,248,4.6,4.6,57,0.00,,CLR,0.00,VWS V13.01,2013-04-23 16:47:00,
2013-04-23 12:52:00,59.3,42.7,30.37,West,270,4.9,4.9,55,0.00,,CLR,0.00,VWS V13.01,2013-04-23 16:52:00,
2013-04-23 12:57:00,59.3,42.4,30.36,West,270,6.0,6.0,55,0.00,,CLR,0.00,VWS V13.01,2013-04-23 16:57:00,
2013-04-23 13:02:00,59.9,43.2,30.36,West,270,6.2,6.2,53,0.00,,CLR,0.00,VWS V13.01,2013-04-23 17:02:00,
2013-04-23 13:07:00,59.9,42.2,30.36,NW,315,6.7,6.7,53,0.00,,CLR,0.00,VWS V13.01,2013-04-23 17:07:00,
2013-04-23 13:12:00,59.9,42.3,30.36,WSW,248,7.6,7.6,52,0.00,,CLR,0.00,VWS V13.01,2013-04-23 17:12:00,
2013-04-23 13:17:00,60.2,42.7,30.36,NW,315,4.4,4.4,51,0.00,,CLR,0.00,VWS V13.01,2013-04-23 17:17:00,
2013-04-23 13:22:00,60.4,42.2,30.36,West,270,5.5,5.5,51,0.00,,CLR,0.00,VWS V13.01,2013-04-23 17:22:00,
2013-04-23 13:27:00,60.8,42.2,30.35,WNW,292,4.6,4.6,51,0.00,,CLR,0.00,VWS V13.01,2013-04-23 17:27:00,
2013-04-23 13:32:00,60.9,42.5,30.35,NW,315,0.6,2.0,50,0.00,,CLR,0.00,VWS V13.01,2013-04-23 17:32:00,
2013-04-23 13:37:00,60.9,41.7,30.34,West,270,3.5,3.5,50,0.00,,CLR,0.00,VWS V13.01,2013-04-23 17:37:00,
2013-04-23 13:42:00,60.9,41.4,30.34,WNW,292,4.2,4.2,50,0.00,,CLR,0.00,VWS V13.01,2013-04-23 17:42:00,
2013-04-23 13:47:00,62.0,41.4,30.34,NW,315,6.2,6.2,47,0.00,,CLR,0.00,VWS V13.01,2013-04-23 17:47:00,
2013-04-23 13:52:00,62.0,41.7,30.33,West,270,2.9,2.9,46,0.00,,CLR,0.00,VWS V13.01,2013-04-23 17:52:00,
2013-04-23 13:58:00,62.2,41.7,30.33,NW,315,1.7,2.0,47,0.00,,CLR,0.00,VWS V13.01,2013-04-23 17:58:00,
2013-04-23 14:03:00,62.4,41.7,30.33,WSW,248,6.0,6.0,46,0.00,,CLR,0.00,VWS V13.01,2013-04-23 18:03:00,
2013-04-23 14:08:00,62.7,41.4,30.33,WSW,248,2.0,2.0,46,0.00,,CLR,0.00,VWS V13.01,2013-04-23 18:08:00,
2013-04-23 14:13:00,63.6,41.6,30.33,SE,135,6.2,6.2,44,0.00,,CLR,0.00,VWS V13.01,2013-04-23 18:13:00,
2013-04-23 14:18:00,64.2,41.8,30.32,WSW,248,4.2,4.2,44,0.00,,CLR,0.00,VWS V13.01,2013-04-23 18:18:00,
2013-04-23 14:23:00,64.2,41.8,30.33,West,270,5.5,5.5,43,0.00,,CLR,0.00,VWS V13.01,2013-04-23 18:23:00,
2013-04-23 14:28:00,64.2,41.3,30.32,SSE,158,3.3,3.3,43,0.00,,CLR,0.00,VWS V13.01,2013-04-23 18:28:00,
2013-04-23 14:33:00,64.7,42.1,30.32,SW,225,2.2,2.2,43,0.00,,CLR,0.00,VWS V13.01,2013-04-23 18:33:00,
2013-04-23 14:38:00,64.7,40.9,30.32,SW,225,2.2,2.2,42,0.00,,CLR,0.00,VWS V13.01,2013-04-23 18:38:00,
2013-04-23 14:43:00,65.1,41.7,30.32,SW,225,6.4,6.4,43,0.00,,CLR,0.00,VWS V13.01,2013-04-23 18:43:00,
2013-04-23 14:48:00,65.1,42.2,30.32,SW,225,1.5,2.0,42,0.00,,CLR,0.00,VWS V13.01,2013-04-23 18:48:00,
2013-04-23 14:53:00,65.4,41.9,30.31,WSW,248,5.8,5.8,43,0.00,,CLR,0.00,VWS V13.01,2013-04-23 18:53:00,
2013-04-23 14:58:00,65.6,41.9,30.31,WSW,248,9.1,9.1,41,0.00,,CLR,0.00,VWS V13.01,2013-04-23 18:58:00,
2013-04-23 15:03:00,65.6,41.5,30.30,SSW,202,4.9,4.9,41,0.00,,CLR,0.00,VWS V13.01,2013-04-23 19:03:00,
2013-04-23 15:08:00,65.8,42.5,30.30,ENE,68,0.8,2.0,40,0.00,,CLR,0.00,VWS V13.01,2013-04-23 19:08:00,
2013-04-23 15:13:00,65.8,42.3,30.30,WNW,292,4.6,4.6,40,0.00,,CLR,0.00,VWS V13.01,2013-04-23 19:13:00,
2013-04-23 15:18:00,66.9,41.8,30.30,NW,315,4.9,4.9,40,0.00,,CLR,0.00,VWS V13.01,2013-04-23 19:18:00,
2013-04-23 15:23:00,66.9,41.0,30.30,WSW,248,2.4,2.4,39,0.00,,CLR,0.00,VWS V13.01,2013-04-23 19:23:00,
2013-04-23 15:28:00,66.7,41.0,30.30,West,270,3.8,3.8,39,0.00,,CLR,0.00,VWS V13.01,2013-04-23 19:28:00,
2013-04-23 15:33:00,66.7,41.0,30.30,SW,225,4.2,4.2,39,0.00,,CLR,0.00,VWS V13.01,2013-04-23 19:33:00,
2013-04-23 15:38:00,66.7,41.6,30.30,WSW,248,4.9,4.9,39,0.00,,CLR,0.00,VWS V13.01,2013-04-23 19:38:00,
2013-04-23 15:43:00,66.7,41.8,30.29,West,270,6.0,6.0,40,0.00,,CLR,0.00,VWS V13.01,2013-04-23 19:43:00,
2013-04-23 15:48:00,66.7,41.0,30.30,West,270,3.1,3.1,39,0.00,,CLR,0.00,VWS V13.01,2013-04-23 19:48:00,
2013-04-23 15:53:00,67.1,41.6,30.29,SW,225,5.1,5.1,41,0.00,,CLR,0.00,VWS V13.01,2013-04-23 19:53:00,
2013-04-23 15:58:00,67.1,41.4,30.29,WSW,248,6.7,6.7,41,0.00,,CLR,0.00,VWS V13.01,2013-04-23 19:58:00,
2013-04-23 16:03:00,67.2,40.8,30.29,WSW,248,5.8,5.8,39,0.00,,CLR,0.00,VWS V13.01,2013-04-23 20:03:00,
2013-04-23 16:08:00,67.1,40.0,30.29,WSW,248,4.2,4.2,38,0.00,,CLR,0.00,VWS V13.01,2013-04-23 20:08:00,
2013-04-23 16:13:00,67.1,40.0,30.28,West,270,5.3,5.3,37,0.00,,CLR,0.00,VWS V13.01,2013-04-23 20:13:00,
2013-04-23 16:18:00,66.9,40.0,30.28,West,270,3.5,3.5,38,0.00,,CLR,0.00,VWS V13.01,2013-04-23 20:18:00,
2013-04-23 16:23:00,66.9,40.1,30.28,ENE,68,3.3,3.3,38,0.00,,CLR,0.00,VWS V13.01,2013-04-23 20:23:00,
2013-04-23 16:28:00,67.6,40.1,30.28,SW,225,3.1,3.1,34,0.00,,CLR,0.00,VWS V13.01,2013-04-23 20:28:00,
2013-04-23 16:33:00,67.2,39.7,30.28,SSE,158,1.1,2.0,37,0.00,,CLR,0.00,VWS V13.01,2013-04-23 20:33:00,
2013-04-23 16:38:00,67.6,38.4,30.28,West,270,3.5,3.5,36,0.00,,CLR,0.00,VWS V13.01,2013-04-23 20:38:00,
2013-04-23 16:43:00,67.6,39.0,30.28,WSW,248,2.4,2.4,36,0.00,,CLR,0.00,VWS V13.01,2013-04-23 20:43:00,
2013-04-23 16:48:00,67.6,38.3,30.27,West,270,0.8,2.0,35,0.00,,CLR,0.00,VWS V13.01,2013-04-23 20:48:00,
2013-04-23 16:53:00,67.6,37.5,30.28,WSW,248,6.2,6.2,34,0.00,,CLR,0.00,VWS V13.01,2013-04-23 20:53:00,
2013-04-23 16:58:00,67.6,36.7,30.28,WSW,248,6.4,6.4,32,0.00,,CLR,0.00,VWS V13.01,2013-04-23 20:58:00,
2013-04-23 17:03:00,67.6,36.1,30.27,SSE,158,0.8,2.0,31,0.00,,CLR,0.00,VWS V13.01,2013-04-23 21:03:00,
2013-04-23 17:08:00,67.8,36.3,30.27,SSE,158,2.0,2.0,31,0.00,,CLR,0.00,VWS V13.01,2013-04-23 21:08:00,
2013-04-23 17:14:00,68.1,36.3,30.27,WSW,248,2.6,2.6,32,0.00,,CLR,0.00,VWS V13.01,2013-04-23 21:14:00,
2013-04-23 17:19:00,68.5,37.5,30.27,SE,135,2.2,2.2,32,0.00,,CLR,0.00,VWS V13.01,2013-04-23 21:19:00,
2013-04-23 17:24:00,68.7,36.9,30.27,WSW,248,5.1,5.1,32,0.00,,CLR,0.00,VWS V13.01,2013-04-23 21:24:00,
2013-04-23 17:29:00,69.0,37.7,30.27,WSW,248,4.2,4.2,31,0.00,,CLR,0.00,VWS V13.01,2013-04-23 21:29:00,
2013-04-23 17:34:00,68.7,36.2,30.27,South,180,2.0,2.0,30,0.00,,CLR,0.00,VWS V13.01,2013-04-23 21:34:00,
2013-04-23 17:39:00,68.5,36.0,30.27,West,270,0.6,2.0,30,0.00,,CLR,0.00,VWS V13.01,2013-04-23 21:39:00,
2013-04-23 17:44:00,68.5,36.5,30.27,SW,225,1.7,2.0,31,0.00,,CLR,0.00,VWS V13.01,2013-04-23 21:44:00,
2013-04-23 17:49:00,68.1,36.1,30.27,WSW,248,5.5,5.5,31,0.00,,CLR,0.00,VWS V13.01,2013-04-23 21:49:00,
2013-04-23 17:54:00,67.6,36.1,30.27,WSW,248,2.4,2.4,32,0.00,,CLR,0.00,VWS V13.01,2013-04-23 21:54:00,
2013-04-23 17:59:00,67.6,36.1,30.27,SSW,202,2.6,2.6,32,0.00,,CLR,0.00,VWS V13.01,2013-04-23 21:59:00,
2013-04-23 18:04:00,67.6,36.7,30.27,West,270,3.1,3.1,32,0.00,,CLR,0.00,VWS V13.01,2013-04-23 22:04:00,
2013-04-23 18:09:00,67.2,36.7,30.27,WSW,248,1.5,2.0,32,0.00,,CLR,0.00,VWS V13.01,2013-04-23 22:09:00,
2013-04-23 18:14:00,67.2,36.3,30.27,WSW,248,2.6,2.6,32,0.00,,CLR,0.00,VWS V13.01,2013-04-23 22:14:00,
2013-04-23 18:19:00,66.9,36.1,30.27,SE,135,6.0,6.0,33,0.00,,CLR,0.00,VWS V13.01,2013-04-23 22:19:00,
2013-04-23 18:24:00,66.9,36.1,30.27,SSW,202,4.6,4.6,32,0.00,,CLR,0.00,VWS V13.01,2013-04-23 22:24:00,
2013-04-23 18:29:00,66.9,35.9,30.27,WSW,248,5.5,5.5,32,0.00,,CLR,0.00,VWS V13.01,2013-04-23 22:29:00,
2013-04-23 18:34:00,66.9,35.8,30.27,WSW,248,2.0,2.0,32,0.00,,CLR,0.00,VWS V13.01,2013-04-23 22:34:00,
2013-04-23 18:39:00,66.5,35.8,30.27,SW,225,4.0,4.0,33,0.00,,CLR,0.00,VWS V13.01,2013-04-23 22:39:00,
2013-04-23 18:44:00,66.5,36.4,30.27,SW,225,1.3,2.0,32,0.00,,CLR,0.00,VWS V13.01,2013-04-23 22:44:00,
2013-04-23 18:49:00,66.2,36.3,30.27,WSW,248,0.2,2.0,33,0.00,,CLR,0.00,VWS V13.01,2013-04-23 22:49:00,
2013-04-23 18:54:00,66.2,36.1,30.27,WSW,248,5.5,5.5,33,0.00,,CLR,0.00,VWS V13.01,2013-04-23 22:54:00,
2013-04-23 18:59:00,65.8,35.9,30.27,SE,135,4.6,4.6,33,0.00,,CLR,0.00,VWS V13.01,2013-04-23 22:59:00,
2013-04-23 19:04:00,65.4,35.6,30.27,SSW,202,2.0,2.0,33,0.00,,CLR,0.00,VWS V13.01,2013-04-23 23:04:00,
2013-04-23 19:09:00,65.4,36.3,30.27,SW,225,2.0,2.0,33,0.00,,CLR,0.00,VWS V13.01,2013-04-23 23:09:00,
2013-04-23 19:14:00,65.4,36.3,30.27,SW,225,0.6,2.0,34,0.00,,CLR,0.00,VWS V13.01,2013-04-23 23:14:00,
2013-04-23 19:19:00,65.3,36.1,30.27,South,180,0.6,2.0,34,0.00,,CLR,0.00,VWS V13.01,2013-04-23 23:19:00,
2013-04-23 19:24:00,65.1,36.1,30.27,South,180,0.6,2.0,34,0.00,,CLR,0.00,VWS V13.01,2013-04-23 23:24:00,
2013-04-23 19:29:00,65.1,36.6,30.27,South,180,0.6,2.0,34,0.00,,CLR,0.00,VWS V13.01,2013-04-23 23:29:00,
2013-04-23 19:34:00,64.9,36.4,30.26,South,180,0.6,2.0,35,0.00,,CLR,0.00,VWS V13.01,2013-04-23 23:34:00,
2013-04-23 19:39:00,64.7,36.3,30.27,South,180,0.6,2.0,35,0.00,,CLR,0.00,VWS V13.01,2013-04-23 23:39:00,
2013-04-23 19:44:00,64.5,36.3,30.27,South,180,0.6,2.0,35,0.00,,CLR,0.00,VWS V13.01,2013-04-23 23:44:00,
2013-04-23 19:49:00,64.5,36.0,30.27,South,180,0.6,2.0,35,0.00,,CLR,0.00,VWS V13.01,2013-04-23 23:49:00,
2013-04-23 19:54:00,64.2,36.0,30.27,South,180,0.6,2.0,35,0.00,,CLR,0.00,VWS V13.01,2013-04-23 23:54:00,
2013-04-23 19:59:00,64.2,35.8,30.27,SE,135,0.8,2.0,35,0.00,,CLR,0.00,VWS V13.01,2013-04-23 23:59:00,
2013-04-23 20:04:00,64.0,35.5,30.27,SE,135,0.8,2.0,35,0.00,,CLR,0.00,VWS V13.01,2013-04-24 00:04:00,
2013-04-23 20:09:00,63.6,35.5,30.27,SE,135,0.8,2.0,35,0.00,,CLR,0.00,VWS V13.01,2013-04-24 00:09:00,
2013-04-23 20:14:00,63.6,35.9,30.27,SE,135,0.8,2.0,35,0.00,,CLR,0.00,VWS V13.01,2013-04-24 00:14:00,
2013-04-23 20:19:00,63.3,35.7,30.27,SE,135,0.8,2.0,36,0.00,,CLR,0.00,VWS V13.01,2013-04-24 00:19:00,
2013-04-23 20:24:00,63.1,35.4,30.27,SE,135,0.8,2.0,36,0.00,,CLR,0.00,VWS V13.01,2013-04-24 00:24:00,
2013-04-23 20:29:00,62.7,36.0,30.27,SE,135,0.8,2.0,36,0.00,,CLR,0.00,VWS V13.01,2013-04-24 00:29:00,
2013-04-23 20:34:00,62.6,35.8,30.27,SE,135,0.8,2.0,37,0.00,,CLR,0.00,VWS V13.01,2013-04-24 00:34:00,
2013-04-23 20:39:00,62.4,35.3,30.27,SE,135,0.8,2.0,37,0.00,,CLR,0.00,VWS V13.01,2013-04-24 00:39:00,
2013-04-23 20:44:00,61.8,35.0,30.27,SE,135,0.8,2.0,37,0.00,,CLR,0.00,VWS V13.01,2013-04-24 00:44:00,
2013-04-23 20:49:00,61.5,35.5,30.27,SE,135,0.8,2.0,37,0.00,,CLR,0.00,VWS V13.01,2013-04-24 00:49:00,
2013-04-23 20:54:00,61.3,35.5,30.27,ESE,112,0.4,2.0,38,0.00,,CLR,0.00,VWS V13.01,2013-04-24 00:54:00,
2013-04-23 20:59:00,60.4,35.5,30.27,ESE,112,0.8,2.0,41,0.00,,CLR,0.00,VWS V13.01,2013-04-24 00:59:00,
2013-04-23 21:04:00,60.4,36.9,30.26,ESE,112,0.8,2.0,41,0.00,,CLR,0.00,VWS V13.01,2013-04-24 01:04:00,
2013-04-23 21:09:00,60.0,37.8,30.26,ESE,112,1.1,2.0,42,0.00,,CLR,0.00,VWS V13.01,2013-04-24 01:09:00,
2013-04-23 21:14:00,59.7,38.2,30.26,ESE,112,4.0,4.0,44,0.00,,CLR,0.00,VWS V13.01,2013-04-24 01:14:00,
2013-04-23 21:19:00,59.7,38.5,30.26,East,90,3.8,3.8,44,0.00,,CLR,0.00,VWS V13.01,2013-04-24 01:19:00,
2013-04-23 21:24:00,59.3,38.9,30.25,ESE,112,0.6,2.0,46,0.00,,CLR,0.00,VWS V13.01,2013-04-24 01:24:00,
2013-04-23 21:29:00,58.8,38.9,30.26,ESE,112,1.5,2.0,48,0.00,,CLR,0.00,VWS V13.01,2013-04-24 01:29:00,
2013-04-23 21:34:00,58.8,39.7,30.26,SE,135,3.1,3.1,48,0.00,,CLR,0.00,VWS V13.01,2013-04-24 01:34:00,
2013-04-23 21:39:00,58.8,39.5,30.25,ENE,68,6.2,6.2,49,0.00,,CLR,0.00,VWS V13.01,2013-04-24 01:39:00,
2013-04-23 21:44:00,58.8,40.2,30.26,SSE,158,6.0,6.0,49,0.00,,CLR,0.00,VWS V13.01,2013-04-24 01:44:00,
2013-04-23 21:49:00,58.2,40.7,30.27,SE,135,1.1,2.0,51,0.00,,CLR,0.00,VWS V13.01,2013-04-24 01:49:00,
2013-04-23 21:54:00,58.2,41.1,30.26,South,180,1.5,2.0,52,0.00,,CLR,0.00,VWS V13.01,2013-04-24 01:54:00,
2013-04-23 21:59:00,58.1,41.4,30.26,ESE,112,5.3,5.3,53,0.00,,CLR,0.00,VWS V13.01,2013-04-24 01:59:00,
2013-04-23 22:04:00,57.9,41.7,30.26,SSW,202,5.3,5.3,54,0.00,,CLR,0.00,VWS V13.01,2013-04-24 02:04:00,
2013-04-23 22:09:00,57.7,41.9,30.27,SE,135,2.4,2.4,55,0.00,,CLR,0.00,VWS V13.01,2013-04-24 02:09:00,
2013-04-23 22:15:00,57.3,41.7,30.26,SE,135,0.8,2.0,56,0.00,,CLR,0.00,VWS V13.01,2013-04-24 02:15:00,
2013-04-23 22:20:00,57.3,41.7,30.25,SSE,158,0.8,2.0,56,0.00,,CLR,0.00,VWS V13.01,2013-04-24 02:20:00,
2013-04-23 22:25:00,57.3,41.9,30.26,SW,225,1.1,2.0,56,0.00,,CLR,0.00,VWS V13.01,2013-04-24 02:25:00,
2013-04-23 22:30:00,57.3,42.4,30.26,SSE,158,1.1,2.0,56,0.00,,CLR,0.00,VWS V13.01,2013-04-24 02:30:00,
2013-04-23 22:35:00,57.0,42.4,30.27,SW,225,2.6,2.6,58,0.00,,CLR,0.00,VWS V13.01,2013-04-24 02:35:00,
2013-04-23 22:40:00,57.0,42.8,30.27,SSW,202,6.2,6.2,59,0.00,,CLR,0.00,VWS V13.01,2013-04-24 02:40:00,
2013-04-23 22:45:00,57.0,42.8,30.27,SW,225,5.3,5.3,59,0.00,,CLR,0.00,VWS V13.01,2013-04-24 02:45:00,
2013-04-23 23:56:00,55.9,42.6,30.28,South,180,2.9,2.9,62,0.00,,CLR,0.00,VWS V13.01,2013-04-24 03:56:00,